Regional Weather Roundup
Issued by NWS Goodland, KS

Home | Current Version | Previous Version | Text Only | Print | Product List | Glossary Off
Versions: 1 2 3 4 5 6 7 8 9 10 11 12 13 14 15 16 17 18 19 20 21 22 23 24 25 26 27 28 29 30 31 32 33 34 35 36 37 38 39 40 41 42 43 44 45 46 47 48 49 50

000
ASUS43 KGLD 242208
RWRGLD

GOODLAND FORECAST AREA HOURLY WEATHER ROUNDUP
NATIONAL WEATHER SERVICE GOODLAND KS
400 PM MDT THU MAY 24 2018

...OFFICIAL OBSERVATIONS...

CITY           SKY/WX    TMP DP  RH WIND       PRES   REMARKS
GOODLAND KS    MOSUNNY   86  54  33 NW6       29.98F
HILL CITY KS   SUNNY     89  62  40 S14G22    29.91F
IMPERIAL NEB   SUNNY     88  46  23 NE9       29.97F
MCCOOK NEB     SUNNY     88  61  40 VRB5      29.91F
AKRON CO       SUNNY     82  42  24 W9        30.05F
BURLINGTON CO  PTSUNNY   83  52  34 NE13      30.03S
LIMON CO       MOSUNNY   75  37  25 E13       30.10F
$$

...UNOFFICIAL OBSERVATIONS...

CITY           SKY/WX    TMP DP  RH WIND       PRES   REMARKS
COLBY KS       MOSUNNY   88  55  33 CALM      29.96S
NORTON KS      SUNNY     93  57  29 S14G22    29.90
SHARON SPRINGS   N/A     90  53  28 MISG        N/A
KIT CARSON CO    N/A     76  44  31 MISG        N/A
YUMA CO        FAIR      82  43  24 N7        30.02S
$$



USA.gov is the U.S. government's official web portal to all federal, state and local government web resources and services.